N6RSX Weather Reports


time (UTC)temp
C
wind
direction
speed
KPH
gust
KPH
rain 1hr
cm
rain 24hr
cm
rain mn
cm
humidity
%
barometer
mb
20260507052907 16 31 0.0 6.4 0.00 0.00 0.00 71 1017.7
20260507052408 17 199 1.6 6.4 0.00 0.00 0.00 71 1017.7
20260507051907 17 222 1.6 4.8 0.00 0.00 0.00 71 1017.7
20260507051405 17 225 1.6 4.8 0.00 0.00 0.00 71 1017.8
20260507050904 17 236 1.6 4.8 0.00 0.00 0.00 70 1017.8
20260507050404 17 232 1.6 3.2 0.00 0.00 0.00 70 1017.8
20260507045904 17 225 1.6 4.8 0.00 0.00 0.00 69 1017.7
20260507045356 17 207 0.0 4.8 0.00 0.00 0.00 69 1017.7
20260507044857 17 214 1.6 4.8 0.00 0.00 0.00 69 1017.7
20260507043837 17 210 1.6 6.4 0.00 0.00 0.00 68 1017.7
20260507043332 17 189 1.6 6.4 0.00 0.00 0.00 68 1017.6
20260507042825 17 202 3.2 8.0 0.00 0.00 0.00 68 1017.7
20260507042319 17 182 4.8 8.0 0.00 0.00 0.00 67 1017.6
20260507041813 17 219 3.2 8.0 0.00 0.00 0.00 67 1017.6
20260507041307 17 220 3.2 11.3 0.00 0.00 0.00 67 1017.6
20260507040801 18 257 3.2 11.3 0.00 0.00 0.00 67 1017.6
20260507035244 18 221 4.8 11.3 0.00 0.00 0.00 66 1017.3
20260507034737 18 232 3.2 11.3 0.00 0.00 0.00 66 1017.3
20260507034231 18 221 3.2 12.9 0.00 0.00 0.00 66 1017.2
20260507033725 18 219 6.4 12.9 0.00 0.00 0.00 66 1017.1
20260507033219 18 198 4.8 11.3 0.00 0.00 0.00 65 1017.0
20260507032714 18 217 4.8 11.3 0.00 0.00 0.00 65 1017.1
20260507032206 18 221 3.2 14.5 0.00 0.00 0.00 64 1017.0
20260507031702 18 244 4.8 14.5 0.00 0.00 0.00 63 1016.9
20260507031155 19 200 4.8 12.9 0.00 0.00 0.00 63 1016.8
20260507030650 19 215 4.8 12.9 0.00 0.00 0.00 62 1016.8
20260507030143 19 228 4.8 12.9 0.00 0.00 0.00 62 1016.8
20260507025637 19 232 4.8 12.9 0.00 0.00 0.00 62 1016.7
20260507025131 19 242 6.4 12.9 0.00 0.00 0.00 62 1016.7
20260507024625 19 229 4.8 14.5 0.00 0.00 0.00 62 1016.6
20260507024119 20 200 6.4 14.5 0.00 0.00 0.00 61 1016.7
20260507023613 20 231 6.4 16.1 0.00 0.00 0.00 61 1016.5
20260507023107 20 231 6.4 16.1 0.00 0.00 0.00 61 1016.4
20260507022056 20 217 4.8 11.3 0.00 0.00 0.00 60 1016.2
20260507021549 20 215 4.8 11.3 0.00 0.00 0.00 60 1016.2
20260507020031 21 209 6.4 12.9 0.00 0.00 0.00 60 1015.9
20260507015525 21 173 8.0 14.5 0.00 0.00 0.00 60 1015.9
20260507015019 21 167 8.0 14.5 0.00 0.00 0.00 59 1015.9
20260507014007 21 165 8.0 14.5 0.00 0.00 0.00 58 1015.9
20260507013501 21 167 9.7 17.7 0.00 0.00 0.00 58 1015.9
20260507012955 21 170 9.7 17.7 0.00 0.00 0.00 58 1015.8
20260507012450 21 205 9.7 17.7 0.00 0.00 0.00 57 1015.6
20260507011439 21 202 9.7 19.3 0.00 0.00 0.00 57 1015.7
20260507010932 21 224 9.7 19.3 0.00 0.00 0.00 57 1015.7
20260507005929 21 185 11.3 22.5 0.00 0.00 0.00 56 1015.6
20260507005429 22 209 11.3 22.5 0.00 0.00 0.00 56 1015.5
20260507004930 22 192 9.7 16.1 0.00 0.00 0.00 55 1015.5
20260507004427 22 242 9.7 19.3 0.00 0.00 0.00 56 1015.6
20260507003929 22 193 9.7 19.3 0.00 0.00 0.00 55 1015.6
20260507002926 22 180 8.0 16.1 0.00 0.00 0.00 55 1015.5
20260507002426 22 202 9.7 19.3 0.00 0.00 0.00 54 1015.5
20260507001927 22 206 9.7 19.3 0.00 0.00 0.00 54 1015.5
20260507000427 22 171 9.7 20.9 0.00 0.00 0.00 53 1015.4
20260506235927 22 181 8.0 17.7 0.00 0.00 0.00 53 1015.5
20260506234927 22 190 6.4 17.7 0.00 0.00 0.00 53 1015.5
20260506234427 22 231 8.0 17.7 0.00 0.00 0.00 54 1015.4
20260506232909 22 205 8.0 16.1 0.00 0.00 0.00 53 1015.5
20260506232403 22 175 8.0 17.7 0.00 0.00 0.00 53 1015.5
20260506231857 22 168 9.7 17.7 0.00 0.00 0.00 54 1015.6
20260506231351 22 236 9.7 16.1 0.00 0.00 0.00 54 1015.7
20260506230346 23 165 9.7 20.9 0.00 0.00 0.00 52 1015.8
20260506225846 23 205 8.0 19.3 0.00 0.00 0.00 51 1015.8
20260506225345 23 196 8.0 16.1 0.00 0.00 0.00 52 1015.9
20260506223347 23 211 9.7 19.3 0.00 0.00 0.00 51 1016.1
20260506222845 23 239 11.3 19.3 0.00 0.00 0.00 52 1016.1
20260506222345 23 214 9.7 19.3 0.00 0.00 0.00 51 1016.1
20260506221845 23 198 9.7 17.7 0.00 0.00 0.00 52 1016.2
20260506221341 23 230 8.0 17.7 0.00 0.00 0.00 52 1016.1
20260506220841 23 170 6.4 16.1 0.00 0.00 0.00 51 1016.3
20260506220341 23 150 6.4 17.7 0.00 0.00 0.00 51 1016.2
20260506215841 23 244 8.0 20.9 0.00 0.00 0.00 52 1016.3
20260506214841 22 222 11.3 22.5 0.00 0.00 0.00 52 1016.5
20260506213841 23 229 9.7 20.9 0.00 0.00 0.00 51 1016.6
20260506213341 23 216 6.4 16.1 0.00 0.00 0.00 52 1016.5
20260506212841 23 154 6.4 16.1 0.00 0.00 0.00 51 1016.4
20260506212340 23 227 6.4 17.7 0.00 0.00 0.00 53 1016.5
20260506211840 22 290 8.0 17.7 0.00 0.00 0.00 54 1016.6
20260506211342 22 227 6.4 16.1 0.00 0.00 0.00 53 1016.7
20260506205841 22 229 6.4 14.5 0.00 0.00 0.00 55 1016.7
20260506205341 22 208 9.7 19.3 0.00 0.00 0.00 54 1016.9
20260506204839 22 184 9.7 19.3 0.00 0.00 0.00 55 1016.8
20260506203324 22 218 8.0 16.1 0.00 0.00 0.00 53 1017.0
20260506202818 22 199 8.0 19.3 0.00 0.00 0.00 54 1017.1
20260506202312 22 224 6.4 19.3 0.00 0.00 0.00 54 1017.2
20260506201812 22 167 6.4 19.3 0.00 0.00 0.00 53 1017.1
20260506201313 22 290 4.8 12.9 0.00 0.00 0.00 51 1017.3
20260506200813 22 217 4.8 11.3 0.00 0.00 0.00 51 1017.4
20260506200311 22 196 4.8 11.3 0.00 0.00 0.00 50 1017.4
20260506195811 22 340 4.8 11.3 0.00 0.00 0.00 51 1017.3
20260506195310 22 15 4.8 11.3 0.00 0.00 0.00 51 1017.6
20260506194808 22 190 6.4 14.5 0.00 0.00 0.00 53 1017.7
20260506194308 21 221 4.8 14.5 0.00 0.00 0.00 51 1017.7
20260506193806 22 198 3.2 12.9 0.00 0.00 0.00 52 1017.7
20260506193307 21 315 3.2 12.9 0.00 0.00 0.00 52 1017.7
20260506192307 21 221 6.4 14.5 0.00 0.00 0.00 53 1017.9
20260506191806 21 246 6.4 14.5 0.00 0.00 0.00 53 1017.9
20260506191304 21 231 4.8 14.5 0.00 0.00 0.00 52 1018.0
20260506190305 21 170 1.6 6.4 0.00 0.00 0.00 52 1018.1
20260506185759 21 351 1.6 6.4 0.00 0.00 0.00 55 1018.1
20260506185254 20 51 3.2 11.3 0.00 0.00 0.00 56 1018.2
20260506184746 20 166 6.4 16.1 0.00 0.00 0.00 56 1018.3
20260506183734 20 148 4.8 12.9 0.00 0.00 0.00 56 1018.3
20260506183228 20 200 4.8 11.3 0.00 0.00 0.00 56 1018.4
20260506182721 20 309 4.8 12.9 0.00 0.00 0.00 56 1018.4
20260506182216 20 254 4.8 12.9 0.00 0.00 0.00 57 1018.4
20260506181712 20 245 3.2 12.9 0.00 0.00 0.00 57 1018.5
20260506181204 20 254 3.2 11.3 0.00 0.00 0.00 57 1018.4
20260506180659 19 240 3.2 6.4 0.00 0.00 0.00 58 1018.5
20260506180152 19 189 3.2 8.0 0.00 0.00 0.00 58 1018.5
20260506175646 19 259 1.6 8.0 0.00 0.00 0.00 60 1018.6
20260506175140 18 161 3.2 12.9 0.00 0.00 0.00 61 1018.5
20260506174634 18 145 3.2 12.9 0.00 0.00 0.00 58 1018.6
20260506174128 18 240 3.2 9.7 0.00 0.00 0.00 60 1018.6
20260506173623 18 132 3.2 8.0 0.00 0.00 0.00 60 1018.5
20260506173116 18 159 3.2 11.3 0.00 0.00 0.00 61 1018.5
20260506172611 18 170 4.8 14.5 0.00 0.00 0.00 60 1018.5
20260506172104 18 88 4.8 14.5 0.00 0.00 0.00 60 1018.6
20260506171558 18 184 3.2 11.3 0.00 0.00 0.00 60 1018.6
20260506171054 18 171 3.2 11.3 0.00 0.00 0.00 60 1018.6
20260506170546 18 151 1.6 8.0 0.00 0.00 0.00 61 1018.6
20260506170040 18 333 3.2 9.7 0.00 0.00 0.00 61 1018.5
20260506165535 17 103 1.6 9.7 0.00 0.00 0.00 61 1018.7
20260506165028 17 154 1.6 6.4 0.00 0.00 0.00 62 1018.6
20260506164523 17 238 1.6 8.0 0.00 0.00 0.00 63 1018.7
20260506164016 17 239 1.6 8.0 0.00 0.00 0.00 63 1018.7
20260506163510 17 263 3.2 8.0 0.00 0.00 0.00 63 1018.7
20260506163005 17 157 3.2 8.0 0.00 0.00 0.00 63 1018.6
20260506162458 17 44 1.6 6.4 0.00 0.00 0.00 62 1018.7
20260506161951 17 22 1.6 6.4 0.00 0.00 0.00 64 1018.7
20260506161447 17 90 3.2 8.0 0.00 0.00 0.00 65 1018.7
20260506160939 17 103 3.2 8.0 0.00 0.00 0.00 66 1018.6
20260506155929 17 35 1.6 6.4 0.00 0.00 0.00 66 1018.6
20260506155422 17 119 0.0 6.4 0.00 0.00 0.00 67 1018.5
20260506154410 17 73 1.6 6.4 0.00 0.00 0.00 69 1018.7
20260506153904 17 85 1.6 6.4 0.00 0.00 0.00 69 1018.7
20260506153359 16 62 1.6 4.8 0.00 0.00 0.00 70 1018.7
20260506152851 16 84 1.6 4.8 0.00 0.00 0.00 69 1018.7
20260506152346 16 0 0.0 4.8 0.00 0.00 0.00 71 1018.7
20260506151840 16 59 0.0 4.8 0.00 0.00 0.00 72 1018.7
20260506151334 16 86 0.0 0.0 0.00 0.00 0.00 74 1018.7
20260506150322 15 157 0.0 0.0 0.00 0.00 0.00 76 1018.5
20260506145817 15 169 0.0 0.0 0.00 0.00 0.00 77 1018.6
20260506145310 15 350 0.0 0.0 0.00 0.00 0.00 78 1018.6
20260506144803 15 350 0.0 1.6 0.00 0.00 0.00 79 1018.6
20260506144258 15 41 0.0 3.2 0.00 0.00 0.00 81 1018.5
20260506143752 14 38 0.0 3.2 0.00 0.00 0.00 82 1018.4
20260506143246 13 9 0.0 3.2 0.00 0.00 0.00 84 1018.4
20260506142744 13 22 0.0 3.2 0.00 0.00 0.00 85 1018.6
20260506142244 13 336 0.0 3.2 0.00 0.00 0.00 85 1018.6
20260506141744 12 350 0.0 3.2 0.00 0.00 0.00 85 1018.5
20260506141240 12 351 1.6 4.8 0.00 0.00 0.00 85 1018.4
20260506140738 12 331 1.6 4.8 0.00 0.00 0.00 86 1018.6
20260506140238 12 11 1.6 4.8 0.00 0.00 0.00 87 1018.6
20260506135738 12 14 1.6 6.4 0.00 0.00 0.00 88 1018.5
20260506134738 11 49 0.0 4.8 0.00 0.00 0.00 90 1018.4
20260506134239 11 340 1.6 4.8 0.00 0.00 0.00 91 1018.4
20260506133739 11 32 1.6 4.8 0.00 0.00 0.00 91 1018.4
20260506133236 11 34 0.0 3.2 0.00 0.00 0.00 91 1018.3
20260506132736 10 344 0.0 3.2 0.00 0.00 0.00 92 1018.3
20260506132231 10 30 1.6 3.2 0.00 0.00 0.00 91 1018.2
20260506131229 10 344 0.0 3.2 0.00 0.00 0.00 92 1018.0
20260506130731 10 350 0.0 3.2 0.00 0.00 0.00 91 1018.0
20260506130228 10 351 0.0 3.2 0.00 0.00 0.00 92 1018.0
20260506125727 10 311 0.0 3.2 0.00 0.00 0.00 92 1017.8
20260506125221 10 333 0.0 3.2 0.00 0.00 0.00 92 1017.8
20260506124717 10 350 1.6 4.8 0.00 0.00 0.00 92 1017.8
20260506123714 10 351 1.6 4.8 0.00 0.03 0.00 92 1017.5
20260506123211 10 347 1.6 4.8 0.00 0.03 0.00 91 1017.4
20260506122212 10 5 1.6 4.8 0.00 0.03 0.00 91 1017.4
20260506121711 10 0 0.0 3.2 0.00 0.03 0.00 92 1017.4
20260506121212 10 349 0.0 0.0 0.00 0.03 0.00 92 1017.3
20260506120711 10 344 0.0 0.0 0.00 0.03 0.00 91 1017.3
20260506120211 10 344 0.0 0.0 0.00 0.03 0.00 91 1017.3
20260506115712 10 344 0.0 3.2 0.00 0.03 0.00 91 1017.4
20260506115212 10 351 0.0 3.2 0.00 0.03 0.00 91 1017.4
20260506114713 10 351 0.0 1.6 0.00 0.03 0.00 91 1017.4
20260506114212 10 355 0.0 0.0 0.00 0.03 0.00 90 1017.3
20260506113212 10 343 0.0 0.0 0.00 0.03 0.00 90 1017.4
20260506112712 10 343 0.0 0.0 0.00 0.03 0.00 90 1017.2
20260506112211 10 343 0.0 1.6 0.00 0.05 0.00 90 1017.3
20260506111711 10 343 0.0 1.6 0.00 0.05 0.00 90 1017.3
20260506111212 10 355 0.0 0.0 0.00 0.08 0.00 90 1017.3
20260506110712 10 355 0.0 0.0 0.00 0.10 0.00 90 1017.3
20260506110213 10 355 0.0 0.0 0.00 0.15 0.00 90 1017.2
20260506105212 11 355 0.0 0.0 0.00 0.20 0.00 90 1017.4
20260506104712 11 355 0.0 0.0 0.00 0.23 0.00 90 1017.4
20260506104211 11 346 0.0 0.0 0.00 0.23 0.00 90 1017.5
20260506103711 11 346 0.0 0.0 0.00 0.23 0.00 90 1017.5
20260506103212 11 346 0.0 0.0 0.00 0.23 0.00 90 1017.4
20260506102712 11 346 0.0 0.0 0.00 0.25 0.00 90 1017.4
20260506102204 11 346 0.0 0.0 0.00 0.25 0.00 89 1017.5
20260506101659 11 346 0.0 0.0 0.00 0.25 0.00 89 1017.4
20260506101153 11 346 0.0 0.0 0.00 0.28 0.00 89 1017.5
20260506100647 11 346 0.0 0.0 0.00 0.30 0.00 89 1017.4
20260506095636 11 5 0.0 0.0 0.00 0.36 0.00 89 1017.5
20260506095129 11 5 0.0 0.0 0.00 0.41 0.00 90 1017.6
20260506094117 11 5 0.0 3.2 0.00 0.48 0.00 90 1017.5
20260506093613 11 5 0.0 3.2 0.00 0.51 0.00 90 1017.7
20260506093105 11 343 0.0 0.0 0.00 0.53 0.00 90 1017.6
20260506092559 11 350 0.0 0.0 0.00 0.56 0.00 90 1017.6
20260506092053 11 340 0.0 0.0 0.00 0.58 0.00 90 1017.7
20260506090536 11 336 0.0 0.0 0.00 0.61 0.00 90 1017.7
20260506085522 10 333 0.0 0.0 0.00 0.61 0.00 89 1017.8
20260506085017 10 331 0.0 0.0 0.00 0.61 0.00 89 1017.7
20260506084512 10 0 0.0 0.0 0.00 0.61 0.00 89 1017.8
20260506084006 10 0 0.0 0.0 0.00 0.61 0.00 89 1017.9
20260506082953 10 0 0.0 1.6 0.00 0.61 0.00 88 1017.9
20260506082448 10 0 0.0 1.6 0.00 0.61 0.00 88 1018.0
20260506081942 10 0 0.0 1.6 0.00 0.61 0.00 87 1018.0
20260506081436 10 0 0.0 3.2 0.00 0.61 0.00 87 1018.0
20260506080423 11 355 0.0 3.2 0.00 0.61 0.00 87 1018.1
20260506073358 11 15 0.0 0.0 0.00 0.61 0.00 86 1018.0
20260506072855 11 15 0.0 0.0 0.00 0.61 0.00 86 1017.9
20260506072354 11 15 0.0 0.0 0.00 0.61 0.00 86 1017.9
20260506071852 11 15 0.0 0.0 0.00 0.61 0.00 86 1018.0
20260506071351 11 15 0.0 0.0 0.00 0.61 0.00 85 1018.0
20260506070853 11 15 0.0 0.0 0.00 0.61 0.00 85 1018.1
20260506070349 11 15 0.0 0.0 0.00 0.61 0.00 85 1018.0
20260506061333 13 11 0.0 3.2 0.00 0.61 0.61 79 1017.7
20260506060831 13 17 0.0 3.2 0.00 0.61 0.61 78 1017.6
20260506060331 14 20 0.0 4.8 0.00 0.61 0.61 78 1017.6